Showing default

CENTISPACE-2 S5, 68354

Orbit data source: Space-Track

CENTISPACE-2 S5, 68354 is a payload satellite owned by Centispace (CN) in LEO that was launched on Sun, 22 Mar 2026 UTC via a JIELONG-3 launch vehicle from the Yellow Sea Launch Area, China (YSLA). Payload-class satellites include a variety of spacecraft equipped with specific instruments for various scientific and technological missions. These include communications satellites like Starlink; space stations such as the ISS; scientific satellites like the Hubble; Earth observation satellites from companies like Planet Labs, Umbra, and HawkEye 360; GPS; miniature CubeSats for education and research; and military/defense satellites.

Loading next visibility...
Identifier
68354, 2026-060E
Orbit
LEO
Country
Flag of CNCN / PRC
Related business
Manufacturer
DFH Shenzhen
Mission
Operational spacecraft
Bus & Motor
WK01, Unknown motor
Mass
140 kg wet, 140 kg dry
Launch date (UTC)
2026-03-22 (3 months ago)
Launch vehicle
JIELONG-3
Launch site
Yellow Sea Launch Area, China (YSLA)
Object type
Payload
Rocket body
Debris
Shape & HBR
Unknown shape, 1.1 m
Radar Cross Section
Large (>1 m²)

Expand to show TLE details & history
Last TLE update: 14 hours ago

TLE from 14 hours ago
0 CENTISPACE-2 S5
1 68354U 26060E   26171.32265178  .00000542  00000-0  13722-3 0  9990
2 68354  54.9769  24.3703 0011163 305.2532  54.7417 14.64533225 13219
Epoch: 2026-06-20T07:44Z
TLE epoch observation values (Epoch: 2026-06-20T07:44:37.113Z)
Latitude
-0.00007°
Longitude
-0.32332°
Altitude
675.095 km
Speed
7.523 km/s
True Right ascension
01h 37m 28s
True Declination
0° 00' 00"
Sunlit
Object was in daylight at epoch
Visualization orbit readout
Latitude
Unknown
Longitude
Unknown
Altitude
Unknown
Speed
Unknown
Apparent Right ascension
Unknown
Apparent Declination
Unknown
Sunlit
N/A
Visualization observer readout
Local Sidereal Time
08:43:13
Azimuth
Unknown
Elevation
Unknown
Doppler factor
Unknown
Orbital elements
Apogee altitude
686.419 km
Perigee altitude
670.664 km
Semi-major axis
7,056.679 km
Eccentricity
0.00112
Inclination
54.9769°
RAAN
24.3703°
Arg. of periapsis
305.2532°
True anomaly
54.84624°
Mean anomaly
54.7417°
Eccentric anomaly
54.79396°
Mean motion
3.66136 °/min
Orbital period
98.32 mins
BSTAR
0.00013722
Loading maneuver chart data...
Computing Atmospheric mass density...
Loading historical data...
Loading historical data...
Loading historical data...
Loading historical data...
Loading historical data...
Loading historical data...
Loading historical data...

Documentation

Showing up to 5 results
|